EW7665 Weather Reports


Display with metric or nautical units.
time (UTC)temp
F
wind
direction
speed
MPH
gust
MPH
rain 1hr
in
rain 24hr
in
rain mn
in
humidity
%
barometer
mb
20260505234556 55 23 0.0 2.0 0.00 0.15 0.15 48 1011.8
20260505233053 55 61 2.0 4.0 0.00 0.15 0.15 48 1011.8
20260505231557 55 48 0.0 3.0 0.00 0.15 0.15 51 1011.8
20260505230051 56 241 1.0 1.0 0.00 0.15 0.15 51 1011.9
20260505224551 56 325 0.0 1.0 0.00 0.15 0.15 51 1011.8
20260505223059 56 311 1.0 2.0 0.00 0.15 0.15 53 1011.9
20260505221601 55 0 0.0 2.0 0.00 0.15 0.15 53 1011.7
20260505220105 55 281 1.0 2.0 0.00 0.15 0.15 60 1011.9
20260505214559 55 294 1.0 3.0 0.00 0.15 0.15 60 1011.9
20260505213055 55 306 0.0 2.0 0.00 0.15 0.15 60 1012.2
20260505211626 55 288 2.0 2.0 0.00 0.15 0.15 70 1012.4
20260505210053 54 290 2.0 4.0 0.00 0.15 0.15 70 1012.3
20260505204600 54 277 3.0 3.0 0.00 0.15 0.15 70 1012.4
20260505203052 53 272 4.0 7.0 0.00 0.15 0.15 76 1012.3
20260505201551 53 287 2.0 3.0 0.00 0.15 0.15 76 1012.6
20260505200048 52 283 1.0 2.0 0.00 0.15 0.15 76 1012.9
20260505194552 52 287 0.0 2.0 0.00 0.15 0.15 75 1012.7
20260505193046 51 278 0.0 3.0 0.00 0.15 0.15 75 1012.9
20260505191552 52 271 1.0 1.0 0.00 0.15 0.15 75 1013.0
20260505190055 52 281 0.0 1.0 0.00 0.15 0.15 76 1013.1
20260505184556 52 0 1.0 1.0 0.00 0.15 0.15 76 1013.1
20260505183055 50 0 0.0 2.0 0.00 0.15 0.15 76 1013.3
20260505181636 50 0 0.0 2.0 0.00 0.15 0.15 79 1013.3
20260505180103 50 88 3.0 3.0 0.00 0.15 0.15 79 1013.5
20260505174553 49 126 2.0 2.0 0.00 0.15 0.15 79 1013.5
20260505173050 49 310 0.0 2.0 0.00 0.15 0.15 82 1013.6
20260505171559 48 81 1.0 1.0 0.00 0.15 0.15 82 1013.6
20260505170052 48 65 0.0 1.0 0.00 0.15 0.15 82 1013.5
20260505164549 48 77 0.0 0.0 0.00 0.15 0.15 84 1013.6
20260505163050 47 0 0.0 1.0 0.00 0.15 0.15 84 1013.7
20260505161552 47 88 0.0 1.0 0.01 0.15 0.15 84 1013.1
20260505153053 46 98 1.0 3.0 0.08 0.15 0.15 85 1012.7
20260505151554 46 113 2.0 4.0 0.09 0.14 0.14 85 1012.9
20260505124607 48 89 2.0 4.0 0.05 0.05 0.05 80 1011.4
20260505123113 48 88 3.0 3.0 0.04 0.04 0.04 66 1010.9
20260505121550 49 78 4.0 4.0 0.04 0.04 0.04 66 1010.7
20260505120112 51 52 0.0 1.0 0.02 0.02 0.02 66 1011.0
20260505114555 51 0 0.0 2.0 0.00 0.00 0.00 49 1010.4
20260505113051 53 78 4.0 4.0 0.00 0.00 0.00 49 1010.0
20260505111550 54 74 1.0 1.0 0.00 0.00 0.00 49 1010.1
20260505110108 54 105 8.0 8.0 0.00 0.00 0.00 47 1008.7
20260505101601 54 144 7.0 7.0 0.00 0.00 0.00 45 1008.3
20260505100057 54 25 1.0 5.0 0.00 0.00 0.00 45 1008.5
20260505094553 54 66 4.0 6.0 0.00 0.00 0.00 45 1008.6
20260505093054 55 81 1.0 5.0 0.00 0.00 0.00 43 1008.5
20260505091557 55 96 4.0 8.0 0.00 0.00 0.00 43 1008.5
20260505090057 55 80 3.0 7.0 0.00 0.00 0.00 43 1008.6
20260505084600 55 94 6.0 7.0 0.00 0.00 0.00 44 1008.1
20260505083104 56 96 3.0 3.0 0.00 0.00 0.00 44 1008.8
20260505081548 56 78 2.0 2.0 0.00 0.00 0.00 44 1008.7
20260505080054 56 72 3.0 7.0 0.00 0.00 0.00 42 1008.7
20260505074551 56 79 7.0 10.0 0.00 0.00 0.00 42 1008.0
20260505073058 57 64 4.0 10.0 0.00 0.00 0.00 42 1007.5
20260505071551 57 100 4.0 5.0 0.00 0.00 0.00 43 1007.4
20260505070057 57 75 2.0 5.0 0.00 0.00 0.00 43 1007.5
20260505064615 58 90 4.0 6.0 0.00 0.00 0.00 42 1007.4
20260505063047 60 67 6.0 11.0 0.00 0.00 0.00 42 1007.5
20260505061551 60 36 5.0 5.0 0.00 0.00 0.00 42 1007.6
20260505060051 60 67 1.0 8.0 0.00 0.00 0.00 38 1007.6
20260505054552 61 52 4.0 9.0 0.00 0.00 0.00 38 1007.3
20260505053049 63 24 9.0 9.0 0.00 0.00 0.00 38 1007.2
20260505051551 63 310 3.0 5.0 0.00 0.00 0.00 37 1006.7
20260505041551 67 64 10.0 10.0 0.00 0.00 0.00 34 1004.7
20260505040059 68 78 2.0 11.0 0.00 0.00 0.00 34 1005.3
20260505034608 69 322 8.0 15.0 0.00 0.00 0.00 34 1004.6
20260505033049 69 110 2.0 9.0 0.00 0.00 0.00 34 1004.5
20260505031550 70 328 5.0 6.0 0.00 0.00 0.00 34 1004.0
20260505030059 72 83 6.0 11.0 0.00 0.00 0.00 37 1003.4
20260505024612 72 99 6.0 9.0 0.00 0.00 0.00 37 1002.8
20260505023050 73 108 4.0 6.0 0.00 0.00 0.00 37 1002.6
20260505021550 73 109 1.0 6.0 0.00 0.00 0.00 55 1002.4
20260505020104 72 320 0.0 5.0 0.00 0.00 0.00 55 1002.1
20260505014550 72 0 0.0 0.0 0.00 0.00 0.00 55 1001.5
20260505013054 74 0 0.0 0.0 0.00 0.00 0.00 47 1001.3
20260505011550 77 0 0.0 0.0 0.00 0.00 0.00 47 1001.0
20260505010109 77 0 0.0 1.0 0.00 0.00 0.00 47 1000.9
20260505004602 78 0 0.0 0.0 0.00 0.00 0.00 39 1000.7
20260505003052 80 0 0.0 2.0 0.00 0.00 0.00 39 1000.8
20260505001548 81 0 0.0 0.0 0.00 0.00 0.00 39 1000.7
20260505000104 81 146 0.0 1.0 0.00 0.00 0.00 36 1000.9